Regional Weather Roundup
Issued by NWS

Home | Current Version | Previous Version | Text Only | Print | Product List | Glossary Off
Versions: 1 2 3 4 5 6 7 8 9 10 11 12 13 14 15 16 17 18 19 20 21 22 23 24 25 26 27 28 29 30 31 32 33 34 35 36 37 38 39 40 41 42 43 44 45 46 47 48 49 50

000
ASUS45 KPSR 311210
RWRAZ

ARIZONA REGIONAL HOURLY WEATHER ROUNDUP
NATIONAL WEATHER SERVICE PHOENIX AZ
500 AM MST THU JUL 31 2014

NOTE: FAIR INDICATES FEW OR NO CLOUDS BELOW 12,000 FEET WITH NO
SIGNIFICANT WEATHER AND/OR OBSTRUCTIONS TO VISIBILITY.

AZZ001>003-036-311300-
NORTHWEST ARIZONA

CITY           SKY/WX    TMP DP  RH WIND       PRES   REMARKS
BULLHEAD CITY  PTCLDY    97  48  19 N13       29.82R
KINGMAN        PTCLDY    76  49  38 E9        30.04R
6HR MIN TEMP:  75; 6HR MAX TEMP:  81;

$$

AZZ004>008-015-016-018-311300-
NORTH CENTRAL ARIZONA

CITY           SKY/WX    TMP DP  RH WIND       PRES   REMARKS
GRAND CANYON   CLEAR     51  47  86 CALM      30.29R
6HR MIN TEMP:  51; 6HR MAX TEMP:  62;

PRESCOTT       MOCLDY    73  48  41 SE5       30.17R
6HR MIN TEMP:  71; 6HR MAX TEMP:  79;

FLAGSTAFF      CLEAR     56  46  69 CALM      30.33R
6HR MIN TEMP:  55; 6HR MAX TEMP:  69;

PAYSON         PTCLDY    70  50  49 CALM      30.20S
PAGE           CLEAR     75  49  39 SW3       30.11R
6HR MIN TEMP:  75; 6HR MAX TEMP:  85;

$$

AZZ009>014-017-311300-
NORTHEAST ARIZONA

CITY           SKY/WX    TMP DP  RH WIND       PRES   REMARKS
WINSLOW        PTCLDY    70  47  43 SW8       30.15S
6HR MIN TEMP:  70; 6HR MAX TEMP:  82;

SAINT JOHNS    PTCLDY    70  49  47 SW7       30.20R
6HR MIN TEMP:  68; 6HR MAX TEMP:  79;

WINDOW ROCK    PTCLDY    61  54  77 CALM      30.31R
6HR MIN TEMP:  59; 6HR MAX TEMP:  66; 6HR PCP:  0.03;

SHOW LOW       PTCLDY    66  46  48 S10       30.30R
$$

AZZ023-311300-
GREATER PHOENIX AREA

CITY           SKY/WX    TMP DP  RH WIND       PRES   REMARKS
PHOENIX        PTCLDY    92  57  30 E8        29.85R
6HR MIN TEMP:  92; 6HR MAX TEMP: 102;

LUKE AFB       NOT AVBL
6HR MIN TEMP:  92; 6HR MAX TEMP:  99;

DEER VALLEY    PTCLDY    88  56  33 E3        29.88R
6HR MIN TEMP:  88; 6HR MAX TEMP:  98;

SCOTTSDALE     CLEAR     89  57  33 CALM      29.90R
6HR MIN TEMP:  89; 6HR MAX TEMP:  99;

MESA-GATEWAY   MOCLDY    88  55  33 E9        29.89
$$

AZZ027-028-311300-
SOUTHWEST MARICOPA COUNTY AND PINAL COUNTY

CITY           SKY/WX    TMP DP  RH WIND       PRES   REMARKS
CASA GRANDE    PTCLDY    82  55  39 CALM      29.90S
6HR MIN TEMP:  82; 6HR MAX TEMP:  93;

$$

AZZ503-504-507>509-311300-
SOUTHEAST ARIZONA

CITY           SKY/WX    TMP DP  RH WIND       PRES   REMARKS
TUCSON         CLOUDY    84  57  39 SW8       30.04R
6HR MIN TEMP:  82; 6HR MAX TEMP:  86;

DAVIS-MONTHAN  CLOUDY    82  60  47 SE5       30.03R
6HR MIN TEMP:  80; 6HR MAX TEMP:  85; 6HR PCP: TRACE;

NOGALES        CLOUDY    71  60  68 E3        30.15R
6HR MIN TEMP:  68; 6HR MAX TEMP:  71;

SIERRA VISTA   CLOUDY    72  55  56 N5        30.17R
SAFFORD        MOCLDY    79  55  43 SE9       30.04R
6HR MIN TEMP:  79; 6HR MAX TEMP:  87;

$$

AZZ020-021-025-026-031-311300-
SOUTHWEST ARIZONA

CITY           SKY/WX    TMP DP  RH WIND       PRES   REMARKS
YUMA           CLEAR     89  64  43 S10       29.79R
6HR MIN TEMP:  89; 6HR MAX TEMP:  96;

$$

CAZ031-033-041-043-047-048-061-311300-
SOUTHERN CALIFORNIA

CITY           SKY/WX    TMP DP  RH WIND       PRES   REMARKS
DOWNTOWN L.A.  CLEAR     68  63  84 CALM      29.91R
6HR MIN TEMP:  68; 6HR MAX TEMP:  71;

L.A. AIRPORT   CLEAR     67  62  84 CALM      29.91S
6HR MIN TEMP:  67; 6HR MAX TEMP:  70;

SAN DIEGO      MOCLDY    72  66  81 CALM      29.93S
6HR MIN TEMP:  71; 6HR MAX TEMP:  72;

BURBANK        CLEAR     71  60  68 CALM      29.92R
6HR MIN TEMP:  71; 6HR MAX TEMP:  73;

ONTARIO        PTCLDY    72  57  59 CALM      29.93S
6HR MIN TEMP:  71; 6HR MAX TEMP:  80;

RIVERSIDE      CLEAR     72  60  66 CALM      29.93S
6HR MIN TEMP:  72; 6HR MAX TEMP:  79;

PALM SPRINGS   CLEAR     93  53  25 NW8       29.82S
6HR MIN TEMP:  88; 6HR MAX TEMP: 102;

EL CENTRO NAS  CLEAR     89  48  24 W6        29.75R
6HR MIN TEMP:  86; 6HR MAX TEMP:  98;

IMPERIAL       CLEAR     87  52  29 CALM      29.75R
6HR MIN TEMP:  85; 6HR MAX TEMP:  99;

BLYTHE           N/A    N/A N/A N/A MISG      29.78R
NEEDLES        PTCLDY    94  50  22 W6        29.82R
6HR MIN TEMP:  94; 6HR MAX TEMP: 103;

$$

NVZ020-UTZ003-311300-
SOUTHERN NEVADA-UTAH

CITY           SKY/WX    TMP DP  RH WIND       PRES   REMARKS
LAS VEGAS      PTCLDY    85  52  32 S9        29.91R
6HR MIN TEMP:  85; 6HR MAX TEMP:  95;

SALT LAKE CITY MOCLDY    64  55  72 N5        30.17S
6HR MIN TEMP:  63; 6HR MAX TEMP:  72;

$$

NMZ009-TXZ055-311300-
NEW MEXICO-WEST TEXAS

CITY           SKY/WX    TMP DP  RH WIND       PRES   REMARKS
ALBUQUERQUE    PTCLDY    63  56  78 E13       30.28S
6HR MIN TEMP:  63; 6HR MAX TEMP:  69; 6HR PCP:  0.05;

EL PASO        CLOUDY    72  62  71 N10       30.17R
6HR MIN TEMP:  73; 6HR MAX TEMP:  82;

$$


........................KEY........................
SKY/WX - SKY CONDITION/WEATHER
TMP    - TEMPERATURE IN FAHRENHEIT
DP     - DEW POINT IN FAHRENHEIT
RH     - RELATIVE HUMIDITY IN PERCENT
WIND   - DIRECTION AND SPEED IN MILES PER HOUR (MPH)
VRB    - VARIABLE WIND DIRECTION
PRES   - MEAN SEA LEVEL PRESSURE IN INCHES OF MERCURY
         F - FALLING PRESSURE   R - RISING PRESSURE
         S - STEADY PRESSURE
VSB    - VISIBILITY IN MILES
HX     - HEAT INDEX IN FAHRENHEIT
WCI    - WIND CHILL INDEX IN FAHRENHEIT
TC     - TEMPERATURE IN CELSIUS WHICH IS ALSO KNOWN AS
         TEMPERATURE IN CENTIGRADE
AFB    - AIR FORCE BASE
         LUKE AFB IS LUKE AIR FORCE BASE
         DAVIS-MONTHAN IS DAVIS-MONTHAN AIR FORCE BASE
NAS    - NAVAL AIR STATION
         EL CENTRO NAS IS EL CENTRO NAVAL AIR STATION
N/A    - NOT AVAILABLE



USA.gov is the U.S. government's official web portal to all federal, state and local government web resources and services.